{"data":{"norad_id":63366,"epoch":"2026-05-25T04:29:56.099040Z","epoch_age_seconds":56030,"freshness":"FRESH","line1":"1 63366U 25063D   26145.18745485  .00013379  00000+0  46291-3 0  9997","line2":"2 63366  53.1583  56.9940 0001078  88.3475 271.7649 15.30208221 66423","mean_motion":15.30208221,"eccentricity":0.0001078,"inclination_deg":53.1583,"raan_deg":56.994,"arg_perigee_deg":88.3475,"mean_anomaly_deg":271.7649,"bstar":0.00046291,"rev_number":6642,"period_min":94.104840128159,"perigee_km":474.45173439807,"apogee_km":475.92931181206,"semimajor_km":6853.3275231051,"source":"CELESTRAK","updated_at":"2026-05-25T13:38:19.961926Z"}}